This is the latest recevied weather packets stored in our database for station/object KB7STN. If no packets are shown the sender has not sent any weather packets the latest 1 day(s).
| Time | Temp. | Humidity | Pressure | Rain* | Wind** | Luminosity | Snow |
|---|---|---|---|---|---|---|---|
| 1778081235 | 10° C | 37% | 1011.9 hPa | 0 mm | - | - | - |
| 1778080935 | 10° C | 40% | 1011.8 hPa | 0 mm | - | - | - |
| 1778080335 | 10° C | 40% | 1011.6 hPa | 0 mm | - | - | - |
| 1778080035 | 10° C | 42% | 1011.6 hPa | 0 mm | - | - | - |
| 1778079735 | 10° C | 46% | 1011.6 hPa | 0 mm | - | - | - |
| 1778079435 | 10° C | 47% | 1011.5 hPa | 0 mm | - | - | - |
| 1778079135 | 10° C | 47% | 1011.4 hPa | 0 mm | - | - | - |
| 1778078835 | 10° C | 47% | 1011.3 hPa | 0 mm | - | - | - |
| 1778078535 | 10° C | 47% | 1011.3 hPa | 0 mm | - | - | - |
| 1778078235 | 9.44° C | 46% | 1011.2 hPa | 0 mm | - | - | - |
| 1778077335 | 9.44° C | 48% | 1011.3 hPa | 0 mm | - | - | - |
| 1778077035 | 8.89° C | 50% | 1011.2 hPa | 0 mm | - | - | - |
| 1778076135 | 8.33° C | 55% | 1011 hPa | 0 mm | - | - | - |
| 1778075835 | 7.78° C | 56% | 1011 hPa | 0 mm | - | - | - |
| 1778075535 | 7.78° C | 57% | 1010.9 hPa | 0 mm | - | - | - |
| 1778075235 | 7.22° C | 61% | 1010.8 hPa | 0 mm | - | - | - |
| 1778074935 | 6.67° C | 63% | 1010.6 hPa | 0 mm | - | - | - |
| 1778074635 | 6.67° C | 67% | 1010.6 hPa | 0 mm | - | - | - |
| 1778074035 | 6.11° C | 68% | 1010.4 hPa | 0 mm | - | - | - |
| 1778073435 | 6.11° C | 68% | 1010.2 hPa | 0 mm | - | - | - |
| 1778073135 | 5.56° C | 68% | 1010.1 hPa | 0 mm | - | - | - |
| 1778071035 | 5° C | 73% | 1009.6 hPa | 0 mm | - | - | - |
| 1778069535 | 4.44° C | 76% | 1009.6 hPa | 0 mm | - | - | - |
| 1778067135 | 4.44° C | 78% | 1009.3 hPa | 0 mm | - | - | - |
| 1778064735 | 4.44° C | 81% | 1008.9 hPa | 0.25 mm | - | - | - |
* Rain latest hour (hover to see other rain measurements)
** Current wind speed in m/s (hover to see current wind gust speed)